Погода в Моранбе

Австралия     21°53′08″S   147°57′58″E
темп.,
°C
ветер,
м/с
пор.,
м/с
влажн.,
%
обл.,
%
осадки,
мм/ч
давл.,
гПа
погр.,
м
26 сентября, вс
вс2601:00+17ссв11654 0.0 101511
04:00+16в11681 0.0 101411
07:00+18вюв22550 0.0 1016106
10:00+26вюв44310 0.0 1016913
13:00+30вюв55210 0.0 10132154
16:00+30вюв44210 0.0 10112633
19:00+24св712320 0.0 1013250
22:00+20св511465 0.0 1015218
27 сентября, пн
пн2701:00+17вюв33605 0.0 101431
04:00+15вюв6108861 0.0 1015213
07:00+17в59840 0.0 1017358
10:00+25в88440 0.0 10161199
13:00+30всв87290 0.0 10132296
16:00+28всв973041 0.0 10112181
19:00+21всв11155319 0.0 1014559
22:00+18всв814760 0.0 1017707
28 сентября, вт
вт2801:00+18всв714780 0.0 1016591
04:00+17в714770 0.0 1015505
07:00+19всв712700 0.0 1017848
10:00+26св89410 0.0 10171509
13:00+30всв873017 0.0 10142307
16:00+29всв1063021 0.0 10122046
19:00+23всв11125036 0.0 1016749
22:00+18в8148642 0.0 1019647
29 сентября, ср
ср2901:00+20всв91375100 0.0 1017987
04:00+18всв7128693 0.0 1016588
07:00+19всв81175100 0.0 10181017
10:00+24св895429 0.0 10181325
13:00+30св873311 0.0 10142138
16:00+29всв1083819 0.0 10131632
19:00+21св913620 0.0 1015452
22:00+19всв8117959 0.0 1018317
30 сентября, чт
чт3001:00+18всв58798 0.0 1016396
04:00+17всв4782100 0.0 1016184
07:00+19св4674100 0.0 1016343
10:00+23ссв45555 0.3 1017882
13:00+29с34330 0.1 10131978
16:00+31с542996 0.1 10102459
19:00+21ссв578499 3.9 1013218
22:00+20св358021 4.1 1014179